QPF
0.04 0.03 0.03 0.03 0.02 0.01 0.01 0.01 0.01 0.01 0.01 0.01 0.01 0.01 0.01 0.01 0.02 0.02 0.03 0.03 0.02 0.02 0.04 0.04 0.03 0.04 0.04 0.03 0.02 0.02 0.02 0.02 0.01 0.01 0.00 0.00 0.00 0.00 0.00 0.00 0.00 0.00 0.00 0.00
0.02 0.03 0.03 0.02 0.02 0.03 0.02 0.02 0.01 0.01 0.01 0.01 0.01 0.01 0.01 0.01 0.03 0.04 0.03 0.02 0.02 0.02 0.03 0.04 0.03 0.03 0.03 0.02 0.02 0.02 0.01 0.02 0.02 0.01 0.00 0.00 0.00 0.00 0.00 0.00 0.00 0.00 0.00 0.00
0.01 0.02 0.02 0.01 0.02 0.03 0.04 0.02 0.01 0.01 0.01 0.01 0.01 0.02 0.02 0.02 0.03 0.04 0.03 0.02 0.02 0.03 0.04 0.05 0.04 0.03 0.03 0.03 0.03 0.02 0.01 0.01 0.02 0.01 0.00 0.00 0.00 0.00 0.00 0.00 0.00 0.00 0.00 0.00
0.01 0.01 0.01 0.01 0.01 0.02 0.04 0.02 0.01 0.01 0.01 0.01 0.02 0.04 0.04 0.04 0.02 0.01 0.01 0.01 0.02 0.03 0.05 0.06 0.05 0.06 0.06 0.04 0.02 0.01 0.01 0.00 0.01 0.01 0.00 0.00 0.00 0.00 0.00 0.00 0.00 0.00 0.00 0.00
0.01 0.01 0.01 0.01 0.01 0.01 0.02 0.02 0.01 0.01 0.01 0.02 0.01 0.02 0.04 0.02 0.01 0.01 0.01 0.01 0.02 0.03 0.04 0.04 0.03 0.03 0.03 0.02 0.01 0.01 0.01 0.01 0.01 0.01 0.00 0.00 0.00 0.00 0.00 0.00 0.00 0.00 0.00 0.01
0.00 0.00 0.01 0.01 0.01 0.01 0.01 0.01 0.02 0.03 0.04 0.03 0.01 0.01 0.02 0.02 0.01 0.02 0.02 0.02 0.02 0.02 0.02 0.03 0.02 0.01 0.01 0.01 0.01 0.00 0.01 0.01 0.01 0.01 0.01 0.00 0.01 0.00 0.01 0.00 0.00 0.00 0.01 0.01
0.00 0.00 0.01 0.01 0.01 0.01 0.01 0.03 0.04 0.05 0.04 0.03 0.01 0.01 0.01 0.01 0.00 0.01 0.02 0.01 0.02 0.02 0.02 0.02 0.01 0.01 0.01 0.01 0.01 0.00 0.00 0.00 0.01 0.01 0.01 0.01 0.01 0.01 0.01 0.01 0.01 0.01 0.01 0.01
0.01 0.01 0.01 0.01 0.01 0.01 0.02 0.02 0.03 0.03 0.03 0.03 0.02 0.02 0.02 0.01 0.01 0.00 0.00 0.00 0.01 0.02 0.02 0.02 0.01 0.01 0.00 0.01 0.01 0.00 0.00 0.00 0.00 0.00 0.01 0.01 0.01 0.01 0.01 0.01 0.01 0.01 0.01 0.01
0.01 0.01 0.00 0.00 0.01 0.01 0.01 0.01 0.01 0.02 0.02 0.02 0.03 0.03 0.04 0.01 0.00 0.00 0.00 0.00 0.01 0.01 0.02 0.02 0.02 0.01 0.00 0.00 0.01 0.00 0.00 0.00 0.00 0.00 0.01 0.01 0.01 0.01 0.01 0.01 0.01 0.01 0.01 0.01
0.01 0.01 0.00 0.00 0.00 0.00 0.01 0.01 0.01 0.02 0.02 0.02 0.03 0.04 0.06 0.02 0.01 0.00 0.00 0.01 0.01 0.01 0.02 0.01 0.01 0.01 0.00 0.00 0.01 0.01 0.01 0.01 0.00 0.01 0.01 0.01 0.01 0.01 0.00 0.01 0.01 0.01 0.02 0.01
0.01 0.01 0.01 0.01 0.00 0.01 0.01 0.01 0.01 0.01 0.01 0.02 0.03 0.02 0.02 0.02 0.02 0.02 0.01 0.00 0.00 0.01 0.01 0.02 0.01 0.01 0.01 0.01 0.01 0.01 0.01 0.01 0.01 0.01 0.01 0.01 0.01 0.01 0.00 0.01 0.02 0.02 0.01 0.00
0.01 0.01 0.00 0.00 0.00 0.01 0.01 0.01 0.01 0.01 0.01 0.02 0.02 0.01 0.01 0.01 0.01 0.02 0.01 0.00 0.00 0.01 0.01 0.02 0.02 0.01 0.01 0.01 0.01 0.01 0.01 0.01 0.01 0.01 0.01 0.01 0.01 0.01 0.01 0.01 0.01 0.01 0.01 0.00
0.01 0.01 0.01 0.01 0.01 0.01 0.01 0.01 0.00 0.01 0.01 0.01 0.02 0.01 0.01 0.01 0.00 0.00 0.01 0.01 0.01 0.01 0.02 0.01 0.02 0.01 0.01 0.01 0.01 0.01 0.01 0.01 0.01 0.01 0.01 0.01 0.01 0.01 0.01 0.02 0.01 0.02 0.01 0.01
0.01 0.01 0.01 0.01 0.00 0.00 0.00 0.00 0.00 0.01 0.01 0.01 0.01 0.00 0.01 0.00 0.00 0.01 0.02 0.02 0.02 0.02 0.02 0.02 0.02 0.02 0.02 0.01 0.01 0.01 0.01 0.01 0.00 0.00 0.00 0.00 0.00 0.00 0.01 0.01 0.01 0.01 0.01 0.01
0.01 0.01 0.01 0.01 0.01 0.00 0.00 0.00 0.00 0.00 0.00 0.01 0.00 0.00 0.00 0.00 0.00 0.00 0.01 0.04 0.05 0.04 0.02 0.01 0.02 0.02 0.02 0.02 0.01 0.01 0.01 0.01 0.01 0.00 0.00 0.00 0.00 0.00 0.00 0.00 0.01 0.01 0.00 0.00
0.01 0.01 0.01 0.01 0.01 0.01 0.01 0.00 0.00 0.00 0.01 0.00 0.00 0.01 0.00 0.01 0.00 0.00 0.00 0.01 0.02 0.02 0.01 0.01 0.01 0.01 0.01 0.01 0.01 0.00 0.01 0.02 0.01 0.01 0.01 0.00 0.00 0.00 0.00 0.00 0.00 0.00 0.00 0.00
0.01 0.01 0.01 0.01 0.01 0.01 0.01 0.00 0.00 0.00 0.00 0.00 0.00 0.00 0.00 0.00 0.00 0.00 0.00 0.00 0.01 0.01 0.01 0.01 0.00 0.00 0.00 0.00 0.00 0.00 0.01 0.02 0.02 0.02 0.02 0.01 0.01 0.01 0.01 0.00 0.00 0.00 0.00 0.00
0.02 0.02 0.02 0.01 0.02 0.01 0.00 0.00 0.00 0.00 0.00 0.00 0.00 0.00 0.00 0.00 0.00 0.00 0.00 0.00 0.00 0.01 0.01 0.00 0.00 0.00 0.01 0.00 0.00 0.01 0.01 0.01 0.02 0.01 0.02 0.02 0.01 0.01 0.01 0.01 0.00 0.00 0.00 0.00
0.01 0.02 0.03 0.02 0.02 0.01 0.00 0.00 0.00 0.00 0.00 0.00 0.00 0.00 0.00 0.00 0.00 0.00 0.00 0.00 0.00 0.00 0.00 0.00 0.01 0.01 0.01 0.00 0.00 0.00 0.01 0.02 0.02 0.01 0.01 0.01 0.01 0.00 0.00 0.00 0.00 0.00 0.00 0.00
0.01 0.02 0.03 0.03 0.03 0.02 0.01 0.00 0.00 0.00 0.00 0.00 0.00 0.00 0.00 0.00 0.00 0.00 0.01 0.00 0.00 0.00 0.00 0.00 0.00 0.00 0.00 0.00 0.01 0.01 0.01 0.01 0.01 0.01 0.01 0.01 0.01 0.01 0.01 0.00 0.00 0.00 0.00 0.00
0.01 0.02 0.03 0.03 0.03 0.03 0.02 0.01 0.00 0.00 0.00 0.00 0.00 0.00 0.00 0.00 0.00 0.00 0.00 0.00 0.00 0.00 0.01 0.01 0.00 0.00 0.00 0.01 0.01 0.00 0.01 0.01 0.02 0.02 0.01 0.01 0.01 0.01 0.01 0.01 0.00 0.00 0.00 0.00
0.02 0.02 0.03 0.03 0.03 0.04 0.02 0.01 0.01 0.00 0.00 0.00 0.00 0.00 0.00 0.00 0.00 0.00 0.00 0.00 0.00 0.00 0.00 0.00 0.00 0.00 0.01 0.01 0.00 0.00 0.01 0.01 0.02 0.02 0.02 0.01 0.01 0.01 0.01 0.01 0.01 0.00 0.01 0.01
0.03 0.02 0.03 0.03 0.03 0.03 0.02 0.01 0.00 0.00 0.00 0.01 0.01 0.00 0.00 0.00 0.00 0.00 0.00 0.00 0.00 0.00 0.00 0.00 0.00 0.00 0.01 0.01 0.00 0.01 0.01 0.02 0.02 0.02 0.02 0.02 0.01 0.01 0.01 0.01 0.01 0.01 0.01 0.00
0.03 0.02 0.03 0.02 0.01 0.02 0.01 0.00 0.00 0.00 0.00 0.01 0.01 0.00 0.00 0.00 0.00 0.00 0.00 0.00 0.00 0.00 0.00 0.00 0.00 0.01 0.01 0.01 0.01 0.01 0.01 0.01 0.02 0.02 0.02 0.02 0.02 0.01 0.01 0.01 0.01 0.01 0.00 0.00
0.02 0.03 0.03 0.03 0.01 0.01 0.01 0.01 0.00 0.00 0.00 0.00 0.01 0.00 0.00 0.00 0.00 0.00 0.00 0.00 0.00 0.00 0.00 0.01 0.01 0.01 0.01 0.01 0.01 0.01 0.01 0.01 0.01 0.01 0.01 0.02 0.02 0.02 0.01 0.01 0.01 0.01 0.01 0.01
0.02 0.02 0.03 0.02 0.01 0.00 0.00 0.00 0.00 0.00 0.00 0.00 0.00 0.00 0.00 0.00 0.00 0.00 0.00 0.00 0.00 0.00 0.00 0.00 0.00 0.00 0.01 0.01 0.01 0.00 0.01 0.01 0.01 0.01 0.01 0.01 0.01 0.01 0.01 0.01 0.01 0.01 0.01 0.01
MSLP
1014.54 1015.28 1015.84 1016.23 1016.49 1016.68 1016.86 1017.08 1017.36 1017.68 1018.01 1018.30 1018.50 1018.56 1018.48 1018.27 1017.95 1017.58 1017.19 1016.84 1016.54 1016.30 1016.11 1015.98 1015.88 1015.81 1015.78 1015.79 1015.87 1016.01 1016.23 1016.51 1016.83 1017.14 1017.43 1017.65 1017.79 1017.84 1017.81 1017.74 1017.64 1017.55 1017.49 1017.48
1015.00 1015.57 1015.94 1016.15 1016.27 1016.36 1016.51 1016.76 1017.11 1017.53 1017.96 1018.33 1018.57 1018.66 1018.58 1018.34 1018.01 1017.63 1017.26 1016.94 1016.69 1016.50 1016.37 1016.26 1016.16 1016.07 1015.99 1015.95 1015.98 1016.09 1016.31 1016.62 1017.00 1017.40 1017.78 1018.08 1018.29 1018.38 1018.37 1018.27 1018.14 1018.01 1017.92 1017.88
1015.20 1015.60 1015.80 1015.87 1015.89 1015.96 1016.14 1016.45 1016.90 1017.41 1017.92 1018.33 1018.58 1018.64 1018.51 1018.21 1017.83 1017.43 1017.07 1016.80 1016.63 1016.53 1016.48 1016.44 1016.39 1016.30 1016.20 1016.12 1016.10 1016.17 1016.38 1016.71 1017.13 1017.60 1018.06 1018.44 1018.72 1018.86 1018.87 1018.78 1018.63 1018.48 1018.36 1018.29
1015.13 1015.38 1015.46 1015.45 1015.45 1015.55 1015.81 1016.25 1016.81 1017.42 1017.98 1018.39 1018.59 1018.56 1018.31 1017.90 1017.42 1016.97 1016.62 1016.39 1016.30 1016.32 1016.39 1016.46 1016.48 1016.44 1016.36 1016.26 1016.21 1016.26 1016.44 1016.77 1017.22 1017.73 1018.25 1018.71 1019.06 1019.25 1019.30 1019.23 1019.09 1018.93 1018.79 1018.72
1014.87 1014.99 1014.98 1014.96 1015.01 1015.21 1015.61 1016.20 1016.89 1017.59 1018.18 1018.55 1018.65 1018.46 1018.04 1017.46 1016.84 1016.30 1015.92 1015.73 1015.72 1015.87 1016.08 1016.29 1016.43 1016.48 1016.44 1016.37 1016.31 1016.34 1016.51 1016.82 1017.27 1017.81 1018.37 1018.88 1019.29 1019.54 1019.64 1019.61 1019.49 1019.34 1019.21 1019.13
1014.51 1014.52 1014.48 1014.48 1014.63 1014.98 1015.55 1016.30 1017.13 1017.90 1018.49 1018.78 1018.74 1018.37 1017.73 1016.95 1016.16 1015.50 1015.05 1014.88 1014.95 1015.21 1015.58 1015.94 1016.23 1016.40 1016.45 1016.43 1016.39 1016.42 1016.57 1016.86 1017.30 1017.84 1018.42 1018.97 1019.42 1019.73 1019.88 1019.90 1019.82 1019.71 1019.60 1019.53
1014.17 1014.10 1014.04 1014.09 1014.35 1014.86 1015.60 1016.51 1017.44 1018.27 1018.83 1019.03 1018.83 1018.26 1017.40 1016.40 1015.43 1014.64 1014.13 1013.95 1014.08 1014.45 1014.96 1015.48 1015.93 1016.24 1016.40 1016.45 1016.46 1016.49 1016.63 1016.90 1017.31 1017.84 1018.42 1018.98 1019.47 1019.82 1020.03 1020.11 1020.09 1020.01 1019.94 1019.90
1013.94 1013.79 1013.72 1013.83 1014.19 1014.83 1015.70 1016.72 1017.73 1018.56 1019.08 1019.18 1018.83 1018.08 1017.03 1015.85 1014.73 1013.83 1013.26 1013.07 1013.25 1013.71 1014.33 1015.00 1015.59 1016.03 1016.31 1016.45 1016.51 1016.57 1016.70 1016.95 1017.33 1017.82 1018.38 1018.94 1019.45 1019.84 1020.11 1020.25 1020.29 1020.27 1020.24 1020.24
1013.88 1013.67 1013.58 1013.72 1014.13 1014.83 1015.77 1016.84 1017.86 1018.67 1019.12 1019.13 1018.66 1017.77 1016.60 1015.30 1014.09 1013.13 1012.53 1012.34 1012.55 1013.08 1013.79 1014.57 1015.27 1015.83 1016.22 1016.44 1016.56 1016.65 1016.77 1017.00 1017.35 1017.80 1018.34 1018.89 1019.40 1019.83 1020.14 1020.34 1020.44 1020.49 1020.51 1020.55
1014.03 1013.75 1013.62 1013.74 1014.14 1014.83 1015.75 1016.77 1017.73 1018.47 1018.84 1018.77 1018.23 1017.28 1016.07 1014.76 1013.54 1012.58 1011.99 1011.83 1012.07 1012.64 1013.41 1014.25 1015.03 1015.67 1016.13 1016.43 1016.60 1016.72 1016.86 1017.07 1017.39 1017.81 1018.31 1018.84 1019.35 1019.80 1020.16 1020.41 1020.58 1020.69 1020.76 1020.84
1014.35 1014.02 1013.83 1013.88 1014.20 1014.79 1015.59 1016.48 1017.30 1017.91 1018.19 1018.05 1017.49 1016.57 1015.41 1014.18 1013.05 1012.18 1011.66 1011.55 1011.82 1012.40 1013.19 1014.04 1014.85 1015.53 1016.05 1016.40 1016.62 1016.78 1016.94 1017.15 1017.45 1017.85 1018.32 1018.83 1019.34 1019.81 1020.20 1020.51 1020.74 1020.90 1021.03 1021.16
1014.79 1014.41 1014.15 1014.10 1014.28 1014.70 1015.29 1015.96 1016.59 1017.03 1017.19 1017.00 1016.47 1015.63 1014.62 1013.55 1012.59 1011.86 1011.46 1011.42 1011.73 1012.31 1013.07 1013.90 1014.70 1015.39 1015.93 1016.32 1016.59 1016.80 1017.00 1017.23 1017.54 1017.93 1018.39 1018.89 1019.39 1019.88 1020.30 1020.66 1020.95 1021.17 1021.36 1021.52
1015.27 1014.86 1014.53 1014.35 1014.36 1014.55 1014.88 1015.28 1015.65 1015.88 1015.91 1015.68 1015.19 1014.49 1013.66 1012.83 1012.09 1011.56 1011.30 1011.35 1011.69 1012.26 1012.98 1013.76 1014.51 1015.18 1015.73 1016.16 1016.49 1016.76 1017.02 1017.30 1017.64 1018.04 1018.50 1019.00 1019.52 1020.02 1020.48 1020.88 1021.23 1021.51 1021.75 1021.96
1015.71 1015.29 1014.91 1014.61 1014.42 1014.36 1014.40 1014.49 1014.57 1014.58 1014.45 1014.18 1013.74 1013.19 1012.57 1011.98 1011.49 1011.18 1011.08 1011.22 1011.59 1012.13 1012.79 1013.51 1014.21 1014.85 1015.41 1015.89 1016.29 1016.64 1016.99 1017.34 1017.74 1018.18 1018.66 1019.18 1019.71 1020.23 1020.73 1021.18 1021.59 1021.93 1022.23 1022.48
1016.05 1015.65 1015.22 1014.82 1014.45 1014.14 1013.88 1013.65 1013.44 1013.20 1012.92 1012.58 1012.19 1011.77 1011.36 1011.01 1010.76 1010.65 1010.70 1010.93 1011.32 1011.83 1012.44 1013.09 1013.74 1014.36 1014.95 1015.48 1015.97 1016.44 1016.89 1017.35 1017.82 1018.32 1018.84 1019.39 1019.94 1020.50 1021.03 1021.54 1022.00 1022.41 1022.77 1023.07
1016.26 1015.88 1015.43 1014.93 1014.40 1013.87 1013.33 1012.81 1012.32 1011.85 1011.40 1010.99 1010.62 1010.31 1010.07 1009.91 1009.86 1009.93 1010.11 1010.42 1010.82 1011.31 1011.86 1012.46 1013.08 1013.71 1014.34 1014.95 1015.56 1016.15 1016.73 1017.30 1017.88 1018.45 1019.03 1019.61 1020.20 1020.78 1021.36 1021.91 1022.44 1022.91 1023.33 1023.69
1016.31 1015.95 1015.49 1014.92 1014.26 1013.53 1012.76 1011.98 1011.24 1010.56 1009.96 1009.47 1009.10 1008.85 1008.73 1008.73 1008.84 1009.04 1009.32 1009.68 1010.09 1010.57 1011.09 1011.66 1012.28 1012.93 1013.62 1014.34 1015.07 1015.80 1016.52 1017.22 1017.90 1018.55 1019.19 1019.81 1020.43 1021.04 1021.66 1022.26 1022.84 1023.39 1023.87 1024.27
1016.22 1015.86 1015.37 1014.74 1013.97 1013.09 1012.13 1011.15 1010.21 1009.35 1008.62 1008.06 1007.67 1007.46 1007.42 1007.52 1007.73 1008.03 1008.38 1008.78 1009.21 1009.67 1010.19 1010.76 1011.40 1012.10 1012.88 1013.71 1014.56 1015.43 1016.29 1017.11 1017.89 1018.62 1019.31 1019.97 1020.61 1021.26 1021.90 1022.55 1023.18 1023.78 1024.32 1024.78
1016.02 1015.62 1015.09 1014.39 1013.52 1012.52 1011.43 1010.30 1009.22 1008.23 1007.41 1006.79 1006.38 1006.19 1006.20 1006.36 1006.64 1007.00 1007.40 1007.83 1008.28 1008.75 1009.28 1009.87 1010.55 1011.32 1012.18 1013.12 1014.10 1015.09 1016.06 1016.98 1017.85 1018.64 1019.37 1020.06 1020.73 1021.39 1022.06 1022.74 1023.41 1024.06 1024.65 1025.15
1015.72 1015.25 1014.64 1013.86 1012.92 1011.83 1010.65 1009.43 1008.26 1007.20 1006.33 1005.68 1005.27 1005.09 1005.13 1005.34 1005.66 1006.07 1006.50 1006.96 1007.43 1007.93 1008.48 1009.11 1009.84 1010.68 1011.62 1012.64 1013.72 1014.80 1015.86 1016.86 1017.78 1018.62 1019.38 1020.09 1020.77 1021.45 1022.14 1022.84 1023.54 1024.22 1024.84 1025.38
1015.35 1014.78 1014.07 1013.21 1012.19 1011.04 1009.80 1008.54 1007.34 1006.27 1005.39 1004.74 1004.34 1004.20 1004.27 1004.51 1004.88 1005.31 1005.78 1006.27 1006.78 1007.31 1007.90 1008.57 1009.35 1010.24 1011.24 1012.32 1013.46 1014.60 1015.71 1016.75 1017.71 1018.57 1019.35 1020.07 1020.76 1021.45 1022.15 1022.86 1023.58 1024.27 1024.92 1025.48
1014.94 1014.23 1013.41 1012.45 1011.37 1010.18 1008.92 1007.67 1006.48 1005.44 1004.60 1003.99 1003.64 1003.53 1003.64 1003.93 1004.33 1004.81 1005.32 1005.85 1006.39 1006.96 1007.59 1008.30 1009.11 1010.04 1011.06 1012.17 1013.33 1014.49 1015.61 1016.66 1017.62 1018.49 1019.28 1020.02 1020.72 1021.41 1022.12 1022.84 1023.56 1024.26 1024.91 1025.47
1014.46 1013.62 1012.69 1011.65 1010.52 1009.31 1008.06 1006.85 1005.72 1004.74 1003.97 1003.43 1003.14 1003.10 1003.26 1003.59 1004.04 1004.56 1005.11 1005.69 1006.27 1006.89 1007.55 1008.29 1009.12 1010.06 1011.08 1012.17 1013.31 1014.45 1015.55 1016.59 1017.54 1018.41 1019.21 1019.95 1020.66 1021.37 1022.09 1022.81 1023.53 1024.22 1024.85 1025.41
1013.91 1012.97 1011.95 1010.85 1009.68 1008.48 1007.27 1006.12 1005.07 1004.19 1003.50 1003.05 1002.85 1002.87 1003.09 1003.48 1003.98 1004.54 1005.15 1005.77 1006.40 1007.06 1007.75 1008.51 1009.34 1010.25 1011.24 1012.29 1013.38 1014.47 1015.52 1016.52 1017.46 1018.32 1019.13 1019.89 1020.62 1021.35 1022.08 1022.80 1023.51 1024.19 1024.80 1025.33
1013.29 1012.27 1011.20 1010.07 1008.91 1007.74 1006.59 1005.52 1004.57 1003.78 1003.20 1002.84 1002.71 1002.80 1003.09 1003.53 1004.08 1004.70 1005.35 1006.02 1006.70 1007.39 1008.10 1008.86 1009.68 1010.56 1011.49 1012.48 1013.49 1014.51 1015.51 1016.47 1017.38 1018.23 1019.05 1019.83 1020.59 1021.35 1022.09 1022.82 1023.53 1024.18 1024.77 1025.27
1012.58 1011.55 1010.47 1009.36 1008.22 1007.11 1006.03 1005.05 1004.19 1003.51 1003.02 1002.74 1002.69 1002.85 1003.18 1003.67 1004.27 1004.94 1005.64 1006.35 1007.07 1007.80 1008.53 1009.29 1010.08 1010.91 1011.78 1012.69 1013.62 1014.56 1015.49 1016.40 1017.29 1018.14 1018.97 1019.78 1020.57 1021.36 1022.12 1022.86 1023.56 1024.20 1024.76 1025.23
Thickness
5745 5728 5718 5723 5728 5728 5724 5716 5711 5717 5729 5722 5714 5713 5717 5721 5720 5716 5714 5715 5715 5718 5722 5724 5724 5723 5721 5720 5719 5717 5715 5715 5714 5712 5710 5709 5708 5709 5710 5711 5712 5712 5712 5712
5726 5720 5733 5739 5737 5732 5724 5714 5712 5719 5729 5722 5713 5712 5718 5720 5719 5718 5716 5715 5716 5716 5717 5719 5720 5720 5718 5718 5716 5715 5714 5713 5712 5711 5710 5709 5707 5707 5707 5708 5709 5709 5710 5710
5720 5728 5742 5737 5730 5725 5721 5715 5714 5714 5720 5721 5713 5704 5711 5717 5720 5721 5720 5719 5719 5718 5716 5716 5716 5716 5716 5715 5715 5715 5713 5712 5711 5711 5709 5707 5704 5704 5703 5704 5705 5706 5707 5707
5727 5737 5738 5731 5727 5725 5713 5727 5725 5719 5706 5696 5705 5684 5703 5710 5712 5716 5718 5717 5718 5719 5718 5716 5715 5714 5714 5715 5715 5714 5712 5711 5710 5709 5707 5704 5700 5698 5699 5700 5702 5703 5704 5704
5724 5733 5731 5725 5729 5731 5722 5731 5726 5719 5707 5696 5699 5687 5694 5708 5706 5713 5719 5720 5720 5720 5719 5717 5717 5717 5716 5716 5714 5713 5711 5710 5709 5708 5706 5703 5700 5699 5699 5699 5699 5700 5701 5701
5731 5741 5738 5734 5739 5739 5733 5723 5715 5705 5695 5682 5695 5686 5689 5701 5712 5718 5722 5723 5723 5722 5721 5719 5718 5717 5716 5715 5713 5712 5709 5708 5707 5706 5704 5702 5700 5698 5697 5696 5696 5696 5697 5698
5719 5730 5739 5742 5728 5729 5723 5698 5680 5676 5671 5676 5698 5691 5697 5719 5726 5727 5726 5726 5725 5724 5721 5718 5716 5715 5714 5713 5712 5710 5708 5706 5705 5704 5703 5701 5699 5698 5696 5695 5695 5694 5694 5694
5701 5703 5728 5736 5729 5718 5715 5702 5678 5668 5667 5676 5694 5690 5708 5730 5734 5735 5733 5730 5726 5723 5722 5720 5718 5716 5715 5713 5712 5710 5707 5705 5704 5702 5701 5700 5699 5698 5696 5696 5695 5694 5693 5693
5702 5705 5733 5740 5740 5729 5712 5703 5703 5685 5682 5674 5682 5697 5714 5729 5730 5731 5730 5727 5724 5724 5722 5720 5719 5717 5715 5713 5712 5711 5708 5705 5703 5702 5700 5699 5698 5697 5696 5695 5695 5694 5693 5693
5717 5706 5722 5734 5736 5732 5726 5714 5694 5683 5671 5664 5677 5685 5692 5712 5720 5725 5726 5725 5726 5725 5723 5721 5719 5717 5716 5714 5713 5712 5709 5705 5703 5702 5700 5699 5698 5697 5696 5694 5693 5692 5692 5692
5722 5705 5709 5719 5716 5713 5715 5710 5699 5685 5681 5667 5664 5679 5715 5718 5723 5724 5726 5728 5727 5725 5724 5722 5719 5718 5716 5713 5711 5709 5707 5704 5702 5701 5699 5698 5697 5696 5695 5693 5692 5691 5690 5690
5715 5700 5694 5708 5726 5732 5722 5714 5700 5683 5679 5677 5669 5682 5728 5726 5728 5728 5727 5729 5728 5727 5725 5722 5719 5716 5713 5711 5710 5708 5706 5704 5702 5701 5699 5697 5696 5694 5693 5692 5691 5690 5689 5688
5712 5695 5681 5686 5700 5715 5715 5716 5711 5697 5683 5674 5669 5686 5724 5725 5726 5728 5728 5728 5727 5725 5723 5720 5716 5714 5712 5710 5709 5707 5706 5705 5703 5700 5698 5696 5694 5693 5692 5691 5690 5689 5688 5686
5715 5694 5685 5681 5690 5703 5706 5713 5713 5698 5680 5678 5683 5694 5712 5718 5721 5724 5726 5726 5725 5723 5721 5718 5714 5713 5712 5710 5709 5707 5706 5705 5703 5700 5697 5695 5693 5692 5691 5690 5689 5687 5686 5684
5706 5691 5695 5699 5708 5710 5709 5710 5712 5705 5697 5687 5694 5699 5711 5718 5722 5724 5726 5724 5722 5720 5719 5717 5714 5713 5711 5710 5709 5707 5706 5705 5703 5699 5697 5695 5694 5692 5690 5688 5687 5685 5684 5682
5694 5689 5691 5693 5704 5706 5704 5710 5711 5710 5707 5702 5702 5705 5721 5724 5724 5723 5723 5722 5720 5719 5720 5719 5717 5714 5712 5711 5709 5707 5706 5705 5703 5699 5696 5695 5692 5690 5688 5687 5685 5683 5681 5679
5681 5681 5675 5673 5689 5692 5687 5706 5708 5708 5711 5707 5700 5709 5719 5718 5720 5721 5722 5722 5721 5721 5721 5720 5718 5716 5715 5713 5711 5708 5707 5705 5702 5699 5696 5694 5691 5689 5687 5686 5683 5680 5678 5676
5676 5671 5664 5664 5672 5663 5693 5717 5718 5712 5711 5714 5715 5718 5721 5722 5724 5726 5726 5724 5722 5723 5722 5721 5720 5718 5717 5716 5713 5710 5707 5703 5700 5697 5695 5693 5690 5688 5686 5683 5681 5678 5676 5674
5679 5669 5657 5652 5655 5668 5694 5711 5713 5706 5702 5715 5714 5716 5720 5723 5720 5718 5726 5727 5726 5726 5725 5723 5722 5720 5717 5715 5713 5709 5705 5702 5698 5696 5694 5692 5690 5687 5684 5681 5679 5677 5674 5671
5674 5668 5655 5648 5649 5654 5685 5712 5719 5708 5692 5712 5715 5714 5715 5714 5699 5706 5723 5726 5726 5725 5724 5722 5721 5719 5715 5713 5711 5707 5703 5700 5698 5696 5695 5692 5690 5687 5683 5681 5678 5675 5673 5670
5656 5652 5647 5645 5646 5661 5693 5709 5710 5682 5687 5711 5714 5713 5712 5708 5707 5714 5721 5722 5722 5722 5721 5721 5718 5715 5713 5712 5709 5704 5701 5699 5699 5697 5694 5691 5688 5686 5683 5679 5676 5674 5671 5668
5649 5645 5643 5642 5641 5657 5696 5698 5691 5693 5706 5709 5710 5712 5711 5711 5713 5714 5715 5716 5717 5716 5716 5716 5713 5711 5710 5709 5706 5701 5699 5699 5697 5694 5691 5688 5686 5684 5681 5677 5673 5671 5668 5664
5648 5653 5652 5653 5659 5680 5692 5694 5700 5702 5701 5705 5706 5709 5710 5708 5707 5709 5709 5709 5710 5710 5710 5711 5709 5707 5706 5705 5704 5699 5698 5696 5694 5690 5687 5685 5683 5681 5678 5675 5670 5667 5664 5661
5646 5654 5650 5652 5663 5676 5683 5689 5695 5698 5699 5702 5704 5705 5705 5703 5703 5702 5702 5702 5703 5704 5704 5704 5703 5701 5700 5700 5700 5698 5696 5694 5690 5686 5683 5681 5678 5676 5674 5671 5668 5664 5661 5658
5641 5645 5643 5645 5658 5666 5674 5680 5685 5690 5693 5695 5697 5699 5699 5698 5697 5696 5695 5695 5696 5697 5697 5698 5697 5696 5696 5696 5695 5695 5693 5690 5686 5682 5679 5677 5674 5672 5669 5667 5665 5663 5661 5660
5636 5638 5637 5641 5652 5655 5662 5673 5679 5680 5683 5686 5688 5688 5691 5692 5690 5690 5689 5690 5690 5690 5691 5691 5691 5690 5690 5690 5689 5689 5688 5686 5682 5677 5674 5672 5669 5667 5664 5661 5657 5657 5657 5656